Hourly Weather Salta

Today, 13 July, Monday

Time Temperature Precipitation Wind Pressure Humidity
00:00 +17°C° 0 mm 2 mps 657 mmHg 79%
01:00 +17°C° 0 mm 2 mps 656 mmHg 79%
02:00 +17°C° 0 mm 2 mps 656 mmHg 78%
03:00 +16°C° 0 mm 2 mps 656 mmHg 76%
04:00 +18°C° 0 mm 1 mps 656 mmHg 75%
05:00 +19°C° 0 mm 1 mps 656 mmHg 74%
06:00 +20°C° 0 mm 1 mps 656 mmHg 73%
07:00 +22°C° 0 mm 1 mps 657 mmHg 66%
08:00 +23°C° 0 mm 1 mps 657 mmHg 60%
09:00 +25°C° 0 mm 1 mps 657 mmHg 53%
10:00 +26°C° 0.2 mm 1 mps 657 mmHg 52%
11:00 +27°C° 0.2 mm 2 mps 657 mmHg 50%
12:00 +28°C° 0.2 mm 2 mps 657 mmHg 49%
13:00 +27°C° 0.7 mm 2 mps 657 mmHg 52%
14:00 +27°C° 0.7 mm 2 mps 657 mmHg 54%
15:00 +27°C° 0.7 mm 3 mps 657 mmHg 57%
16:00 +26°C° 0.6 mm 2 mps 656 mmHg 61%
17:00 +25°C° 0.6 mm 2 mps 656 mmHg 66%
18:00 +25°C° 0.6 mm 1 mps 656 mmHg 71%
19:00 +23°C° 0.4 mm 1 mps 656 mmHg 73%
20:00 +22°C° 0.4 mm 1 mps 656 mmHg 75%
21:00 +20°C° 0.4 mm 1 mps 656 mmHg 77%
22:00 +19°C° 0.5 mm 2 mps 656 mmHg 78%
23:00 +18°C° 0.5 mm 2 mps 656 mmHg 79%

Tomorrow, 14 July, Tuesday

Time Temperature Precipitation Wind Pressure Humidity
00:00 +18°C° 0.5 mm 2 mps 656 mmHg 80%
01:00 +18°C° 0.1 mm 1 mps 656 mmHg 80%
02:00 +18°C° 0.1 mm 1 mps 656 mmHg 80%
03:00 +18°C° 0.1 mm 1 mps 656 mmHg 80%
04:00 +19°C° 0.1 mm 1 mps 657 mmHg 79%
05:00 +17°C° 0.1 mm 0 mps 657 mmHg 78%
06:00 +18°C° 0.1 mm 0 mps 658 mmHg 78%
07:00 +19°C° 0.4 mm 0 mps 658 mmHg 77%
08:00 +22°C° 0.4 mm 1 mps 659 mmHg 75%
09:00 +23°C° 0.4 mm 1 mps 659 mmHg 74%
10:00 +22°C° 1.6 mm 1 mps 659 mmHg 78%
11:00 +22°C° 1.6 mm 1 mps 659 mmHg 81%
12:00 +21°C° 1.6 mm 1 mps 659 mmHg 85%
13:00 +22°C° 0.9 mm 1 mps 660 mmHg 83%
14:00 +23°C° 0.9 mm 1 mps 660 mmHg 81%
15:00 +23°C° 0.9 mm 2 mps 660 mmHg 79%
16:00 +23°C° 1.7 mm 2 mps 660 mmHg 82%
17:00 +21°C° 1.7 mm 2 mps 660 mmHg 85%
18:00 +20°C° 1.7 mm 2 mps 660 mmHg 87%
19:00 +20°C° 1.9 mm 1 mps 660 mmHg 89%
20:00 +20°C° 1.9 mm 1 mps 660 mmHg 91%
21:00 +19°C° 1.9 mm 1 mps 660 mmHg 93%
22:00 +19°C° 0.4 mm 1 mps 660 mmHg 92%
23:00 +18°C° 0.4 mm 1 mps 660 mmHg 90%

Day after tomorrow, 15 July, Wednesday

Time Temperature Precipitation Wind Pressure Humidity
00:00 +18°C° 0.4 mm 1 mps 660 mmHg 89%
01:00 +18°C° 0 mm 1 mps 660 mmHg 88%
02:00 +18°C° 0 mm 1 mps 661 mmHg 88%
03:00 +16°C° 0 mm 1 mps 661 mmHg 88%
04:00 +18°C° 0 mm 1 mps 661 mmHg 86%
05:00 +18°C° 0 mm 1 mps 662 mmHg 85%
06:00 +19°C° 0 mm 1 mps 662 mmHg 83%
07:00 +20°C° 0 mm 1 mps 662 mmHg 78%
08:00 +22°C° 0 mm 1 mps 663 mmHg 74%
09:00 +23°C° 0 mm 1 mps 663 mmHg 69%
10:00 +23°C° 0.4 mm 2 mps 663 mmHg 69%
11:00 +24°C° 0.4 mm 2 mps 663 mmHg 69%
12:00 +24°C° 0.4 mm 2 mps 663 mmHg 68%
13:00 +24°C° 1.3 mm 2 mps 663 mmHg 71%
14:00 +24°C° 1.3 mm 2 mps 663 mmHg 74%
15:00 +23°C° 1.3 mm 2 mps 663 mmHg 76%
16:00 +23°C° 1.1 mm 2 mps 662 mmHg 79%
17:00 +22°C° 1.1 mm 1 mps 662 mmHg 82%
18:00 +21°C° 1.1 mm 1 mps 662 mmHg 86%
19:00 +21°C° 0.1 mm 1 mps 662 mmHg 87%
20:00 +20°C° 0.1 mm 1 mps 662 mmHg 89%
21:00 +17°C° 0.1 mm 0 mps 662 mmHg 91%
22:00 +17°C° 0.1 mm 0 mps 662 mmHg 91%
23:00 +19°C° 0.1 mm 1 mps 662 mmHg 90%

16 July, Thursday

Time Temperature Precipitation Wind Pressure Humidity
00:00 +18°C° 0.1 mm 1 mps 662 mmHg 90%
01:00 +18°C° 0 mm 1 mps 662 mmHg 89%
02:00 +16°C° 0 mm 0 mps 661 mmHg 89%
03:00 +16°C° 0 mm 0 mps 661 mmHg 88%
04:00 +17°C° 0 mm 0 mps 661 mmHg 87%
05:00 +17°C° 0 mm 0 mps 661 mmHg 85%
06:00 +18°C° 0 mm 0 mps 662 mmHg 84%
07:00 +21°C° 0 mm 1 mps 662 mmHg 79%
08:00 +22°C° 0 mm 1 mps 662 mmHg 74%
09:00 +23°C° 0 mm 2 mps 662 mmHg 69%
10:00 +23°C° 0.6 mm 2 mps 662 mmHg 68%
11:00 +24°C° 0.6 mm 2 mps 662 mmHg 67%
12:00 +24°C° 0.6 mm 3 mps 662 mmHg 66%
13:00 +24°C° 0.5 mm 2 mps 661 mmHg 68%
14:00 +23°C° 0.5 mm 2 mps 661 mmHg 69%
15:00 +23°C° 0.5 mm 2 mps 661 mmHg 70%
16:00 +23°C° 0.1 mm 2 mps 661 mmHg 71%
17:00 +22°C° 0.1 mm 1 mps 660 mmHg 73%
18:00 +22°C° 0.1 mm 1 mps 660 mmHg 74%
19:00 +21°C° 0 mm 1 mps 660 mmHg 77%
20:00 +18°C° 0 mm 0 mps 660 mmHg 81%
21:00 +17°C° 0 mm 0 mps 660 mmHg 85%
22:00 +16°C° 0 mm 0 mps 660 mmHg 85%
23:00 +18°C° 0 mm 1 mps 659 mmHg 85%

17 July, Friday

Time Temperature Precipitation Wind Pressure Humidity
00:00 +18°C° 0 mm 1 mps 659 mmHg 85%
01:00 +18°C° 0 mm 1 mps 659 mmHg 85%
02:00 +18°C° 0 mm 1 mps 659 mmHg 84%
03:00 +16°C° 0 mm 1 mps 659 mmHg 84%
04:00 +18°C° 0 mm 1 mps 659 mmHg 83%
05:00 +19°C° 0 mm 1 mps 659 mmHg 81%
06:00 +19°C° 0 mm 1 mps 659 mmHg 79%
07:00 +21°C° 0 mm 1 mps 659 mmHg 75%
08:00 +22°C° 0 mm 1 mps 660 mmHg 71%
09:00 +23°C° 0 mm 2 mps 660 mmHg 67%
10:00 +23°C° 0.4 mm 2 mps 660 mmHg 67%
11:00 +23°C° 0.4 mm 2 mps 660 mmHg 67%
12:00 +24°C° 0.4 mm 2 mps 660 mmHg 67%
13:00 +24°C° 0.7 mm 2 mps 660 mmHg 67%
14:00 +24°C° 0.7 mm 2 mps 660 mmHg 68%
15:00 +24°C° 0.7 mm 2 mps 660 mmHg 68%
16:00 +23°C° 0.5 mm 2 mps 660 mmHg 70%
17:00 +23°C° 0.5 mm 2 mps 660 mmHg 73%
18:00 +23°C° 0.5 mm 1 mps 659 mmHg 75%
19:00 +21°C° 0.6 mm 1 mps 659 mmHg 79%
20:00 +20°C° 0.6 mm 1 mps 659 mmHg 83%
21:00 +18°C° 0.6 mm 1 mps 659 mmHg 87%
22:00 +18°C° 0.1 mm 1 mps 659 mmHg 88%
23:00 +18°C° 0.1 mm 1 mps 659 mmHg 88%

18 July, Saturday

Time Temperature Precipitation Wind Pressure Humidity
00:00 +16°C° 0.1 mm 1 mps 659 mmHg 89%
01:00 +16°C° 0 mm 1 mps 659 mmHg 89%
02:00 +16°C° 0 mm 1 mps 659 mmHg 89%
03:00 +16°C° 0 mm 1 mps 659 mmHg 88%
04:00 +16°C° 0 mm 1 mps 660 mmHg 86%
05:00 +18°C° 0 mm 1 mps 660 mmHg 84%
06:00 +19°C° 0 mm 1 mps 660 mmHg 82%
07:00 +20°C° 0 mm 1 mps 661 mmHg 76%
08:00 +21°C° 0 mm 2 mps 661 mmHg 70%
09:00 +23°C° 0 mm 2 mps 662 mmHg 63%
10:00 +24°C° 0.2 mm 2 mps 662 mmHg 62%
11:00 +25°C° 0.2 mm 3 mps 662 mmHg 60%
12:00 +25°C° 0.2 mm 3 mps 662 mmHg 59%
13:00 +25°C° 0.3 mm 3 mps 662 mmHg 59%
14:00 +25°C° 0.3 mm 3 mps 662 mmHg 59%
15:00 +25°C° 0.3 mm 3 mps 662 mmHg 60%
16:00 +25°C° 0.1 mm 3 mps 662 mmHg 62%
17:00 +24°C° 0.1 mm 2 mps 662 mmHg 65%
18:00 +23°C° 0.1 mm 2 mps 661 mmHg 68%
19:00 +21°C° 0 mm 2 mps 661 mmHg 71%
20:00 +19°C° 0 mm 2 mps 661 mmHg 74%
21:00 +19°C° 0 mm 1 mps 661 mmHg 77%
22:00 +18°C° 0 mm 1 mps 661 mmHg 78%
23:00 +18°C° 0 mm 1 mps 661 mmHg 78%
Show more